This is the latest recevied weather packets stored in our database for station/object JE6MIQ-13. If no packets are shown the sender has not sent any weather packets the latest 10 day(s).
| Time | Temp. | Humidity | Pressure | Rain* | Wind** | Luminosity | Snow |
|---|---|---|---|---|---|---|---|
| 1777894355 | 16.11° C | 25% | 1016.4 hPa | 0 mm | - | - | - |
| 1777893755 | 16.11° C | 25% | 1016 hPa | 0 mm | - | - | - |
| 1777893154 | 16.11° C | 25% | 1016 hPa | 0 mm | - | - | - |
| 1777892553 | 16.11° C | 25% | 1015.7 hPa | 0 mm | - | - | - |
| 1777891954 | 16.11° C | 25% | 1015.7 hPa | 0 mm | - | - | - |
| 1777891354 | 16.67° C | 25% | 1015.7 hPa | 0 mm | - | - | - |
| 1777890755 | 16.67° C | 25% | 1015.5 hPa | 0 mm | - | - | - |
| 1777890155 | 16.67° C | 25% | 1015.2 hPa | 0 mm | - | - | - |
| 1777889553 | 16.67° C | 25% | 1015.2 hPa | 0 mm | - | - | - |
| 1777888954 | 17.22° C | 25% | 1015.3 hPa | 0 mm | - | - | - |
| 1777888354 | 17.22° C | 25% | 1014.7 hPa | 0 mm | - | - | - |
| 1777887753 | 17.78° C | 25% | 1014.7 hPa | 0 mm | - | - | - |
| 1777887155 | 17.78° C | 25% | 1014.6 hPa | 0 mm | - | - | - |
| 1777886554 | 17.78° C | 25% | 1014.7 hPa | 0 mm | - | - | - |
| 1777885953 | 18.33° C | 25% | 1014.7 hPa | 0 mm | - | - | - |
| 1777885354 | 18.33° C | 25% | 1014.4 hPa | 0 mm | - | - | - |
| 1777884754 | 18.89° C | 25% | 1014.3 hPa | 0 mm | - | - | - |
| 1777884154 | 18.33° C | 25% | 1014.3 hPa | 0 mm | - | - | - |
| 1777883554 | 18.89° C | 25% | 1014 hPa | 0 mm | - | - | - |
| 1777882955 | 18.89° C | 25% | 1014.2 hPa | 0 mm | - | - | - |
| 1777882354 | 18.89° C | 25% | 1014.2 hPa | 0 mm | - | - | - |
| 1777881753 | 19.44° C | 25% | 1014 hPa | 0 mm | - | - | - |
| 1777881153 | 20° C | 25% | 1014 hPa | 0 mm | - | - | - |
| 1777880553 | 19.44° C | 25% | 1014 hPa | 0 mm | - | - | - |
| 1777879953 | 20° C | 25% | 1014.3 hPa | 0 mm | - | - | - |
* Rain latest hour (hover to see other rain measurements)
** Current wind speed in m/s (hover to see current wind gust speed)